When you browse on this site, cookies collect data to enhance your experience and personalize the content and advertising you see.
Visit our Privacy Policy to learn more. By continuing to use the site, you agree to this use of cookies and data.
  • In Latvia
  • List of Countries
  • For 7 days
  • Water Temperature
  • Satellite Maps
  • Weather Map
  • Weather Widgets
  • user-avatar
    Login

    Hourly Weather Kitzbuhel

    Today, 25 May, Saturday

    Time Temperature Precipitation Wind Pressure Humidity
    00:00 +9°C° 0 mm 1 mps 675 mmHg 85%
    01:00 +10°C° 0 mm 1 mps 675 mmHg 80%
    02:00 +9°C° 0 mm 1 mps 675 mmHg 80%
    03:00 +9°C° 0 mm 1 mps 675 mmHg 80%
    04:00 +9°C° 0 mm 1 mps 675 mmHg 81%
    05:00 +11°C° 0 mm 1 mps 675 mmHg 75%
    06:00 +13°C° 0 mm 1 mps 676 mmHg 69%
    07:00 +14°C° 0 mm 0 mps 676 mmHg 63%
    08:00 +16°C° 0 mm 1 mps 677 mmHg 58%
    09:00 +19°C° 0 mm 1 mps 677 mmHg 54%
    10:00 +20°C° 0 mm 1 mps 677 mmHg 49%
    11:00 +19°C° 0.6 mm 1 mps 677 mmHg 58%
    12:00 +19°C° 0.6 mm 1 mps 676 mmHg 67%
    13:00 +18°C° 0.6 mm 1 mps 676 mmHg 76%
    14:00 +16°C° 1 mm 1 mps 676 mmHg 80%
    15:00 +16°C° 1 mm 1 mps 676 mmHg 84%
    16:00 +15°C° 1 mm 1 mps 676 mmHg 88%
    17:00 +13°C° 0.8 mm 0 mps 676 mmHg 90%
    18:00 +12°C° 0.8 mm 0 mps 675 mmHg 93%
    19:00 +12°C° 0.8 mm 0 mps 675 mmHg 95%
    20:00 +11°C° 0.7 mm 0 mps 676 mmHg 96%
    21:00 +11°C° 0.7 mm 1 mps 676 mmHg 96%
    22:00 +11°C° 0.7 mm 1 mps 676 mmHg 97%
    23:00 +10°C° 0.8 mm 1 mps 676 mmHg 96%

    Tomorrow, 26 May, Sunday

    Time Temperature Precipitation Wind Pressure Humidity
    00:00 +10°C° 0.8 mm 1 mps 676 mmHg 96%
    01:00 +10°C° 0.8 mm 1 mps 676 mmHg 96%
    02:00 +10°C° 0.2 mm 1 mps 676 mmHg 96%
    03:00 +8°C° 0.2 mm 0 mps 676 mmHg 96%
    04:00 +8°C° 0.2 mm 0 mps 676 mmHg 95%
    05:00 +9°C° 0 mm 0 mps 676 mmHg 95%
    06:00 +10°C° 0 mm 0 mps 676 mmHg 94%
    07:00 +11°C° 0 mm 0 mps 676 mmHg 93%
    08:00 +12°C° 0.1 mm 0 mps 677 mmHg 89%
    09:00 +14°C° 0.1 mm 1 mps 677 mmHg 85%
    10:00 +15°C° 0.1 mm 1 mps 677 mmHg 81%
    11:00 +16°C° 0.3 mm 1 mps 677 mmHg 77%
    12:00 +18°C° 0.3 mm 1 mps 677 mmHg 74%
    13:00 +19°C° 0.3 mm 1 mps 677 mmHg 70%
    14:00 +19°C° 0.7 mm 1 mps 677 mmHg 76%
    15:00 +18°C° 0.7 mm 1 mps 676 mmHg 81%
    16:00 +18°C° 0.7 mm 1 mps 676 mmHg 86%
    17:00 +16°C° 0.7 mm 1 mps 676 mmHg 89%
    18:00 +15°C° 0.7 mm 1 mps 676 mmHg 91%
    19:00 +13°C° 0.7 mm 0 mps 676 mmHg 94%
    20:00 +13°C° 0.5 mm 0 mps 676 mmHg 95%
    21:00 +12°C° 0.5 mm 0 mps 676 mmHg 95%
    22:00 +11°C° 0.5 mm 0 mps 676 mmHg 95%
    23:00 +11°C° 0.1 mm 0 mps 676 mmHg 95%

    Day after tomorrow, 27 May, Monday

    Time Temperature Precipitation Wind Pressure Humidity
    00:00 +11°C° 0.1 mm 0 mps 676 mmHg 95%
    01:00 +11°C° 0.1 mm 1 mps 675 mmHg 95%
    02:00 +10°C° 0 mm 0 mps 675 mmHg 95%
    03:00 +10°C° 0 mm 0 mps 675 mmHg 95%
    04:00 +10°C° 0 mm 0 mps 675 mmHg 95%
    05:00 +11°C° 0.1 mm 0 mps 675 mmHg 94%
    06:00 +12°C° 0.1 mm 0 mps 675 mmHg 93%
    07:00 +13°C° 0.1 mm 0 mps 675 mmHg 92%
    08:00 +13°C° 0.2 mm 0 mps 675 mmHg 90%
    09:00 +15°C° 0.2 mm 1 mps 675 mmHg 89%
    10:00 +16°C° 0.2 mm 1 mps 675 mmHg 88%
    11:00 +16°C° 0.4 mm 1 mps 675 mmHg 86%
    12:00 +18°C° 0.4 mm 1 mps 675 mmHg 84%
    13:00 +18°C° 0.4 mm 1 mps 674 mmHg 82%
    14:00 +18°C° 0.4 mm 1 mps 674 mmHg 83%
    15:00 +18°C° 0.4 mm 1 mps 674 mmHg 85%
    16:00 +17°C° 0.4 mm 2 mps 673 mmHg 86%
    17:00 +16°C° 0.6 mm 1 mps 673 mmHg 90%
    18:00 +15°C° 0.6 mm 1 mps 673 mmHg 94%
    19:00 +15°C° 0.6 mm 1 mps 672 mmHg 98%
    20:00 +13°C° 0.8 mm 0 mps 672 mmHg 98%
    21:00 +13°C° 0.8 mm 0 mps 672 mmHg 98%
    22:00 +12°C° 0.8 mm 0 mps 672 mmHg 98%
    23:00 +12°C° 3.1 mm 0 mps 671 mmHg 98%

    28 May, Tuesday

    Time Temperature Precipitation Wind Pressure Humidity
    00:00 +13°C° 3.1 mm 1 mps 671 mmHg 98%
    01:00 +13°C° 3.1 mm 1 mps 671 mmHg 98%
    02:00 +12°C° 2 mm 1 mps 670 mmHg 97%
    03:00 +12°C° 2 mm 1 mps 670 mmHg 97%
    04:00 +12°C° 2 mm 1 mps 669 mmHg 97%
    05:00 +12°C° 0.3 mm 1 mps 669 mmHg 96%
    06:00 +13°C° 0.3 mm 1 mps 669 mmHg 94%
    07:00 +13°C° 0.3 mm 1 mps 669 mmHg 93%
    08:00 +14°C° 0.2 mm 1 mps 669 mmHg 89%
    09:00 +15°C° 0.2 mm 1 mps 669 mmHg 86%
    10:00 +16°C° 0.2 mm 1 mps 670 mmHg 82%
    11:00 +16°C° 0.7 mm 2 mps 669 mmHg 83%
    12:00 +16°C° 0.7 mm 2 mps 669 mmHg 84%
    13:00 +16°C° 0.7 mm 2 mps 669 mmHg 85%
    14:00 +14°C° 2.2 mm 2 mps 669 mmHg 89%
    15:00 +13°C° 2.2 mm 2 mps 668 mmHg 92%
    16:00 +10°C° 2.2 mm 2 mps 668 mmHg 96%
    17:00 +9°C° 1.8 mm 2 mps 669 mmHg 97%
    18:00 +9°C° 1.8 mm 2 mps 669 mmHg 98%
    19:00 +9°C° 1.8 mm 1 mps 669 mmHg 98%
    20:00 +9°C° 1 mm 1 mps 670 mmHg 98%
    21:00 +9°C° 1 mm 1 mps 670 mmHg 98%
    22:00 +8°C° 1 mm 1 mps 670 mmHg 98%
    23:00 +8°C° 1.3 mm 1 mps 670 mmHg 98%

    29 May, Wednesday

    Time Temperature Precipitation Wind Pressure Humidity
    00:00 +8°C° 1.3 mm 1 mps 671 mmHg 98%
    01:00 +8°C° 1.3 mm 1 mps 671 mmHg 98%
    02:00 +8°C° 2.1 mm 1 mps 671 mmHg 98%
    03:00 +7°C° 2.1 mm 1 mps 671 mmHg 98%
    04:00 +7°C° 2.1 mm 1 mps 671 mmHg 98%
    05:00 +7°C° 1.7 mm 1 mps 671 mmHg 98%
    06:00 +7°C° 1.7 mm 1 mps 671 mmHg 98%
    07:00 +7°C° 1.7 mm 1 mps 672 mmHg 98%
    08:00 +7°C° 1.7 mm 1 mps 672 mmHg 98%
    09:00 +7°C° 1.7 mm 1 mps 672 mmHg 98%
    10:00 +7°C° 1.7 mm 1 mps 673 mmHg 97%
    11:00 +8°C° 0.7 mm 1 mps 673 mmHg 96%
    12:00 +9°C° 0.7 mm 1 mps 674 mmHg 94%
    13:00 +9°C° 0.7 mm 1 mps 674 mmHg 92%
    14:00 +10°C° 0.2 mm 1 mps 675 mmHg 90%
    15:00 +10°C° 0.2 mm 1 mps 675 mmHg 88%
    16:00 +11°C° 0.2 mm 1 mps 675 mmHg 86%
    17:00 +10°C° 0.3 mm 1 mps 676 mmHg 90%
    18:00 +9°C° 0.3 mm 1 mps 676 mmHg 94%
    19:00 +9°C° 0.3 mm 1 mps 677 mmHg 97%
    20:00 +9°C° 0.2 mm 1 mps 677 mmHg 98%
    21:00 +8°C° 0.2 mm 1 mps 678 mmHg 98%
    22:00 +8°C° 0.2 mm 1 mps 678 mmHg 98%
    23:00 +8°C° 0.1 mm 1 mps 679 mmHg 98%

    30 May, Thursday

    Time Temperature Precipitation Wind Pressure Humidity
    00:00 +8°C° 0.1 mm 1 mps 679 mmHg 98%
    01:00 +7°C° 0.1 mm 1 mps 679 mmHg 97%
    02:00 +7°C° 0.1 mm 1 mps 679 mmHg 97%
    03:00 +7°C° 0.1 mm 1 mps 679 mmHg 96%
    04:00 +7°C° 0.1 mm 1 mps 679 mmHg 95%
    05:00 +8°C° 0.1 mm 1 mps 680 mmHg 94%
    06:00 +8°C° 0.1 mm 1 mps 680 mmHg 93%
    07:00 +8°C° 0.1 mm 0 mps 681 mmHg 92%
    08:00 +10°C° 0.1 mm 1 mps 681 mmHg 88%
    09:00 +11°C° 0.1 mm 1 mps 681 mmHg 84%
    10:00 +13°C° 0.1 mm 1 mps 681 mmHg 80%
    11:00 +14°C° 0.2 mm 1 mps 681 mmHg 76%
    12:00 +15°C° 0.2 mm 1 mps 681 mmHg 73%
    13:00 +16°C° 0.2 mm 2 mps 681 mmHg 69%
    14:00 +15°C° 0.5 mm 2 mps 681 mmHg 72%
    15:00 +15°C° 0.5 mm 2 mps 680 mmHg 74%
    16:00 +15°C° 0.5 mm 2 mps 680 mmHg 77%
    17:00 +14°C° 0.3 mm 2 mps 680 mmHg 82%
    18:00 +13°C° 0.3 mm 1 mps 680 mmHg 87%
    19:00 +11°C° 0.3 mm 1 mps 680 mmHg 92%
    20:00 +11°C° 0.3 mm 1 mps 680 mmHg 93%
    21:00 +10°C° 0.3 mm 1 mps 680 mmHg 94%
    22:00 +9°C° 0.3 mm 1 mps 680 mmHg 95%
    23:00 +9°C° 0.1 mm 1 mps 680 mmHg 95%
    Show more